DW0495 Weather Reports


Display with metric or nautical units.
time (UTC)temp
F
wind
direction
speed
MPH
gust
MPH
rain 1hr
in
rain 24hr
in
rain mn
in
humidity
%
barometer
mb
20260502185742 71 80 0.0 0.0 0.00 0.00 0.00 24 1019.5
20260502184741 70 80 0.0 0.0 0.00 0.00 0.00 22 1019.6
20260502183743 70 80 0.0 0.0 0.00 0.00 0.00 27 1019.7
20260502183244 70 63 0.0 0.0 0.00 0.00 0.00 25 1019.9
20260502182106 69 62 0.0 0.0 0.00 0.00 0.00 30 1020.2
20260502181600 70 63 0.0 0.0 0.00 0.00 0.00 27 1020.0
20260502170138 63 62 0.0 0.0 0.00 0.00 0.00 35 1020.8
20260502164017 60 63 0.0 0.0 0.00 0.00 0.00 38 1020.9
20260502162241 59 62 0.0 0.0 0.00 0.00 0.00 37 1021.0
20260502161242 58 62 0.0 0.0 0.00 0.00 0.00 39 1021.0
20260502160241 57 62 0.0 0.0 0.00 0.00 0.00 41 1021.0
20260502151643 51 62 0.0 0.0 0.00 0.00 0.00 50 1021.1
20260502150643 51 62 0.0 0.0 0.00 0.00 0.00 52 1021.1
20260502123756 33 62 0.0 0.0 0.00 0.00 0.00 73 1020.5
20260502122756 33 62 0.0 0.0 0.00 0.00 0.00 72 1020.5
20260502121757 34 62 0.0 0.0 0.00 0.00 0.00 72 1020.5
20260502115033 34 62 0.0 0.0 0.00 0.00 0.00 72 1020.5
20260502114033 34 62 0.0 0.0 0.00 0.00 0.00 71 1020.7
20260502113035 34 62 0.0 0.0 0.00 0.00 0.00 70 1020.7
20260502111419 35 62 0.0 0.0 0.00 0.00 0.00 69 1020.7
20260502110418 35 62 0.0 0.0 0.00 0.00 0.00 70 1020.7
20260502105419 35 62 0.0 0.0 0.00 0.00 0.00 69 1020.8
20260502104420 35 62 0.0 0.0 0.00 0.00 0.00 68 1020.8
20260502103423 36 62 0.0 0.0 0.00 0.00 0.00 67 1020.7
20260502103419 36 62 0.0 0.0 0.00 0.00 0.00 68 1020.8
20260502101421 36 62 0.0 0.0 0.00 0.00 0.00 66 1020.7
20260502100307 37 62 0.0 0.0 0.00 0.00 0.00 66 1020.7
20260502091308 38 62 0.0 0.0 0.00 0.00 0.00 62 1020.5
20260502090356 39 62 0.0 0.0 0.00 0.00 0.00 61 1020.4
20260502071432 42 62 0.0 0.0 0.00 0.00 0.00 56 1020.3
20260502070430 42 62 0.0 0.0 0.00 0.00 0.00 55 1020.2
20260502065431 42 62 0.0 0.0 0.00 0.00 0.00 53 1020.1
20260502064037 43 62 0.0 0.0 0.00 0.00 0.00 53 1020.1
20260502063034 43 62 0.0 0.0 0.00 0.00 0.00 53 1020.0
20260502062032 44 62 0.0 0.0 0.00 0.00 0.00 52 1020.0
20260502060554 44 62 0.0 0.0 0.00 0.00 0.00 51 1020.0
20260502055554 45 62 0.0 0.0 0.00 0.00 0.00 50 1020.0
20260502054554 45 62 0.0 0.0 0.00 0.00 0.00 49 1020.0
20260502053552 46 62 0.0 0.0 0.00 0.00 0.00 46 1020.0
20260502052101 47 62 0.0 0.0 0.00 0.00 0.00 45 1020.0
20260502051100 47 62 0.0 0.0 0.00 0.00 0.00 45 1020.0
20260502050101 48 62 0.0 0.0 0.00 0.00 0.00 43 1019.9
20260502045058 48 62 0.0 0.0 0.00 0.00 0.00 43 1020.0
20260502043725 49 62 0.0 0.0 0.00 0.00 0.00 42 1019.9
20260502042726 50 62 0.0 0.0 0.00 0.00 0.00 42 1019.9
20260502041258 51 62 0.0 0.0 0.00 0.00 0.00 37 1019.9
20260502040256 51 62 0.0 0.0 0.00 0.00 0.00 37 1019.7
20260502035257 52 62 0.0 0.0 0.00 0.00 0.00 36 1019.7
20260502034258 52 62 0.0 0.0 0.00 0.00 0.00 34 1019.6
20260502032843 54 62 0.0 0.0 0.00 0.00 0.00 33 1019.4
20260502031341 55 62 0.0 0.0 0.00 0.00 0.00 32 1019.3
20260502030340 56 62 0.0 0.0 0.00 0.00 0.00 30 1019.2
20260502024807 57 62 0.0 0.0 0.00 0.00 0.00 28 1019.0
20260502023804 58 62 0.0 0.0 0.00 0.00 0.00 26 1018.9
20260502022806 60 62 0.0 0.0 0.00 0.00 0.00 25 1018.9
20260502021552 62 62 0.0 0.0 0.00 0.00 0.00 22 1018.9
20260502020550 63 62 0.0 0.0 0.00 0.00 0.00 20 1018.9
20260502015551 64 62 0.0 0.0 0.00 0.00 0.00 18 1018.9
20260502014552 64 62 0.0 0.0 0.00 0.00 0.00 17 1018.9
20260502012705 64 62 0.0 0.0 0.00 0.00 0.00 17 1018.9
20260502011705 64 62 0.0 0.0 0.00 0.00 0.00 16 1018.9
20260502010704 64 62 0.0 0.0 0.00 0.00 0.00 16 1019.0
20260502005704 65 62 0.0 0.0 0.00 0.00 0.00 15 1019.0
20260502004705 64 62 0.0 0.0 0.00 0.00 0.00 16 1019.0
20260502003544 64 62 0.0 0.0 0.00 0.00 0.00 18 1019.0
20260502002544 65 62 0.0 0.0 0.00 0.00 0.00 15 1019.2
20260502001546 65 62 0.0 0.0 0.00 0.00 0.00 18 1019.2
20260501235719 64 89 0.0 0.0 0.00 0.00 0.00 20 1019.2
20260501235013 64 90 0.0 0.0 0.00 0.00 0.00 21 1019.2
20260501233511 64 90 0.0 0.0 0.00 0.00 0.00 23 1019.3
20260501232512 64 90 0.0 0.0 0.00 0.00 0.00 21 1019.3
20260501231512 64 90 0.0 0.0 0.00 0.00 0.00 21 1019.4
20260501230513 64 90 0.0 0.0 0.00 0.00 0.00 21 1019.4
20260501225328 64 98 0.0 0.0 0.00 0.00 0.00 20 1019.6
20260501224326 64 98 0.0 0.0 0.00 0.00 0.00 19 1019.6
20260501223328 64 98 0.0 0.0 0.00 0.00 0.00 23 1019.7
20260501222326 64 98 0.0 0.0 0.00 0.00 0.00 22 1019.9
20260501221326 64 98 0.0 0.0 0.00 0.00 0.00 23 1020.0
20260501220327 64 98 0.0 0.0 0.00 0.00 0.00 24 1020.1
20260501214714 64 98 0.0 0.0 0.00 0.00 0.00 27 1020.3
20260501214215 64 98 0.0 0.0 0.00 0.00 0.00 22 1020.5
20260501212715 65 98 0.0 0.0 0.00 0.00 0.00 23 1020.5
20260501211334 66 62 0.0 0.0 0.00 0.00 0.00 22 1020.8
20260501210052 66 62 0.0 0.0 0.00 0.00 0.00 29 1020.8
20260501205051 66 342 0.0 0.0 0.00 0.00 0.00 28 1020.9
20260501204049 66 340 0.0 0.0 0.00 0.00 0.00 28 1021.0
20260501203050 66 340 0.0 0.0 0.00 0.00 0.00 23 1021.1
20260501202051 66 340 0.0 0.0 0.00 0.00 0.00 24 1021.0
20260501201240 65 340 0.0 0.0 0.00 0.00 0.00 27 1021.0
20260501200238 65 348 0.0 0.0 0.00 0.00 0.00 27 1021.1
20260501194735 65 348 0.0 0.0 0.00 0.00 0.00 26 1021.2
20260501192731 64 348 0.0 0.0 0.00 0.00 0.00 28 1021.3
20260501190809 64 348 0.0 0.0 0.00 0.00 0.00 33 1021.5
20260501190309 64 348 0.0 0.0 0.00 0.00 0.00 31 1021.5